indice_tiempo,ica_indice_valor_nivel_importaciones_general,ica_indice_precio_importaciones_nivel_general,ica_indice_cantidad_importaciones_nivel_general,ica_indice_valor_importaciones_bienes_capital,ica_indice_precio_importaciones_bienes_capital,ica_indice_cantidad_importaciones_bienes_capital,ica_indice_valor_importaciones_bienes_intermedios,ica_indice_precio_importaciones_bienes_intermedios,ica_indice_cantidad_importaciones_bienes_intermedios,ica_indice_valor_nivel_imp_combustibles_lubricantes,ica_indice_precio_importaciones_combustibles_lubricantes,ica_indice_cantidad_importaciones_combustibles_lubricantes,ica_indice_valor_nivel_importaciones_piezas_bs_capital,ica_indice_precio_imp_piezas_accesorios_bs_capital,ica_indice_cantidad_imp_piezas_accesorios_bs_capital,ica_indice_valor_nivel_importaciones_bienes_consumo,ica_indice_precio_importaciones_bienes_consumo,ica_indice_cantidad_importaciones_bienes_consumo,ica_indice_valor_nivel_imp_vehiculos_automotores_pasajeros,ica_indice_precio_imp_vehiculos_automotores_pasajeros,ica_indice_cantidad_imp_vehiculos_automotores_pasajeros
1990-01-01,16.3,110.3,14.8,12.3,109.7,11.2,21.7,105.9,20.5,30.1,189.0,15.9,17.1,106.6,16.0,8.1,99.9,8.1,0.3,82.2,0.4
1990-04-01,15.1,111.8,13.5,12.2,109.1,11.2,17.6,106.6,16.5,31.7,223.8,14.1,19.0,104.7,18.2,7.7,101.3,7.6,0.5,80.7,0.6
1990-07-01,17.0,112.3,15.1,9.6,123.5,7.7,23.6,108.8,21.7,25.5,165.8,15.4,18.3,106.3,17.2,12.9,105.0,12.3,0.8,80.6,1.0
1990-10-01,24.3,116.9,20.8,13.7,121.7,11.2,33.0,114.0,28.9,41.1,175.2,23.5,21.9,110.5,19.8,24.1,110.4,21.8,2.2,82.6,2.7
1991-01-01,23.2,114.5,20.2,19.4,124.4,15.6,27.3,108.3,25.2,51.3,137.4,37.4,19.3,116.4,16.6,22.2,108.3,20.5,2.6,82.4,3.2
1991-04-01,31.1,112.0,27.7,25.2,121.0,20.8,35.5,107.3,33.1,35.7,174.1,20.5,30.0,112.8,26.6,41.0,104.7,39.2,5.9,79.6,7.4
1991-07-01,40.6,105.2,38.5,25.8,120.7,21.4,45.2,105.2,42.9,60.7,93.4,65.0,34.9,110.4,31.6,70.3,99.5,70.6,15.3,80.7,18.9
1991-10-01,52.7,105.3,50.0,37.3,121.9,30.6,50.4,100.4,50.2,32.4,101.2,32.1,52.3,114.0,45.9,108.7,102.8,105.8,43.8,85.2,51.4
1992-01-01,51.5,104.4,49.3,39.4,122.4,32.2,50.7,99.2,51.1,22.1,73.1,30.3,57.9,109.4,52.9,91.4,104.7,87.4,37.5,86.8,43.2
1992-04-01,63.8,102.7,62.1,52.2,118.2,44.2,51.6,97.8,52.8,39.6,57.8,68.5,76.1,109.6,69.5,129.6,107.3,120.8,55.2,84.8,65.1
1992-07-01,77.6,104.1,74.6,68.6,121.7,56.4,62.1,100.5,61.8,57.1,54.7,104.4,82.1,113.1,72.6,143.3,108.0,132.7,104.1,90.3,115.2
1992-10-01,72.1,105.1,68.6,71.6,118.4,60.5,55.5,100.0,55.5,47.0,77.7,60.4,70.6,109.7,64.3,148.1,106.0,139.7,68.2,88.7,76.9
1993-01-01,58.1,104.6,55.5,55.3,122.7,45.0,48.7,98.8,49.2,17.3,69.4,24.9,62.1,109.1,56.9,105.7,103.0,102.6,66.5,88.1,75.5
1993-04-01,69.0,104.0,66.3,66.9,122.5,54.6,53.3,98.6,54.1,36.8,54.2,67.8,78.3,109.0,71.8,135.3,104.8,129.2,56.7,90.0,63.1
1993-07-01,83.0,100.5,82.6,85.3,116.1,73.5,65.4,98.2,66.6,67.0,48.1,139.2,85.4,108.2,79.0,145.7,104.5,139.5,84.2,90.7,92.9
1993-10-01,89.0,103.8,85.7,101.0,116.1,87.0,67.2,97.5,68.9,33.1,58.4,56.7,84.7,107.9,78.5,177.2,105.5,168.0,76.3,91.6,83.3
1994-01-01,87.6,104.7,83.6,108.5,117.6,92.3,64.9,96.1,67.5,43.0,64.8,66.4,91.9,111.5,82.4,139.9,107.0,130.8,81.9,92.0,89.0
1994-04-01,95.0,102.3,92.8,103.9,118.7,87.5,70.5,97.4,72.4,63.1,45.2,139.7,98.0,110.4,88.8,167.9,107.6,156.2,106.8,94.2,113.4
1994-07-01,100.6,103.2,97.5,117.0,116.0,100.9,78.0,104.1,74.9,79.8,43.6,183.3,95.3,111.5,85.5,153.4,108.7,141.1,124.3,96.2,129.3
1994-10-01,101.6,106.9,95.1,121.2,118.3,102.4,75.9,107.7,70.4,55.8,48.6,114.8,90.3,112.4,80.3,163.4,107.9,151.5,154.5,96.0,160.9
1995-01-01,93.3,106.6,87.6,103.1,120.2,85.7,82.0,113.0,72.5,73.8,37.8,195.2,97.3,114.2,85.1,133.6,111.9,119.4,63.2,97.5,64.8
1995-04-01,85.2,106.1,80.3,76.3,122.5,62.3,78.8,116.3,67.7,90.4,37.5,240.8,99.6,116.7,85.3,120.4,115.3,104.4,58.6,98.1,59.7
1995-07-01,87.6,106.4,82.3,82.1,118.8,69.1,87.2,117.9,74.0,84.2,36.3,231.8,88.3,116.1,76.1,116.5,115.4,100.9,65.2,99.7,65.4
1995-10-01,92.4,108.8,84.9,94.6,121.2,78.1,86.6,116.9,74.1,74.2,38.0,195.1,87.3,117.4,74.4,137.1,116.1,118.1,72.0,98.4,73.1
1996-01-01,88.9,112.3,79.1,87.1,118.1,73.7,88.5,120.4,73.5,57.2,44.9,127.3,89.7,116.2,77.2,117.3,118.2,99.2,74.2,96.8,76.6
1996-04-01,102.0,106.8,95.5,100.3,111.1,90.3,92.5,113.9,81.2,100.1,51.9,192.9,109.9,113.4,96.9,134.9,115.8,116.5,100.3,96.2,104.2
1996-07-01,117.3,104.4,112.4,111.1,113.9,97.5,108.2,107.7,100.4,121.8,47.9,254.4,127.9,114.0,112.2,149.6,115.1,130.0,120.8,98.0,123.3
1996-10-01,115.3,108.5,106.2,122.2,115.4,105.9,100.4,106.8,94.0,57.6,53.3,108.0,126.1,113.0,111.6,171.2,116.1,147.4,105.5,99.9,105.6
1997-01-01,115.7,109.4,105.8,124.9,112.4,111.1,99.7,111.0,89.8,86.6,65.9,131.4,135.5,113.3,119.6,147.3,117.7,125.2,102.2,97.3,105.0
1997-04-01,134.0,106.3,126.1,137.6,109.9,125.1,115.7,112.3,103.0,105.6,49.5,213.2,159.4,110.4,144.4,172.8,116.3,148.6,131.5,97.0,135.5
1997-07-01,146.0,104.8,139.4,152.1,109.6,138.8,128.4,106.2,120.8,95.2,48.0,198.5,167.6,110.4,151.7,193.0,115.0,167.7,142.9,97.6,146.4
1997-10-01,146.9,105.6,139.2,164.5,112.3,146.5,124.1,110.4,112.4,99.4,43.6,228.2,149.4,109.0,137.1,212.3,114.3,185.8,146.2,97.3,150.2
1998-01-01,134.3,103.9,129.2,162.8,109.3,149.0,116.8,110.0,106.2,78.4,36.9,212.4,136.5,108.7,125.6,163.0,113.2,143.9,129.3,97.7,132.4
1998-04-01,145.9,100.5,145.2,168.9,105.0,160.8,119.1,104.1,114.5,89.4,37.0,241.8,164.7,107.4,153.3,198.2,110.6,179.2,135.4,98.4,137.6
1998-07-01,150.2,98.3,152.8,157.1,106.8,147.1,122.3,99.2,123.2,96.9,33.7,287.7,181.1,107.0,169.2,210.3,109.7,191.7,164.0,99.3,165.1
1998-10-01,128.8,97.9,131.5,148.9,106.4,140.0,106.0,95.1,111.5,75.3,36.4,206.9,127.5,105.5,120.8,201.5,110.9,181.7,115.4,98.3,117.3
1999-01-01,104.1,97.7,106.5,116.7,106.8,109.3,91.0,96.3,94.5,68.4,37.3,183.6,100.7,106.8,94.3,160.4,107.9,148.7,76.9,98.8,77.9
1999-04-01,107.2,95.9,111.8,123.8,102.2,121.2,91.3,93.1,98.0,66.0,42.4,155.5,105.9,103.5,102.3,169.9,104.8,162.1,68.5,99.1,69.1
1999-07-01,121.9,96.3,126.6,138.6,103.2,134.3,100.8,89.9,112.1,92.3,58.5,157.8,127.0,103.8,122.4,184.5,104.3,176.9,93.3,99.7,93.6
1999-10-01,121.3,97.3,124.7,127.3,103.6,122.9,104.0,92.2,112.8,64.4,52.7,122.3,130.0,104.0,125.0,205.0,103.7,197.7,81.0,99.4,81.5
2000-01-01,104.7,100.2,104.6,104.6,104.4,100.2,95.1,96.2,98.8,91.4,78.0,117.2,113.1,104.3,108.5,164.3,105.3,156.1,47.7,101.8,46.9
2000-04-01,112.3,98.6,113.8,106.1,99.6,106.5,98.0,95.5,102.7,105.8,84.5,125.2,124.7,103.8,120.2,180.7,101.9,177.3,79.8,102.4,78.0
2000-07-01,117.7,96.7,121.8,119.0,99.4,119.8,99.2,90.8,109.2,130.0,84.5,153.8,123.6,101.7,121.5,192.2,103.3,186.0,75.8,100.7,75.3
2000-10-01,115.8,98.2,118.0,114.8,99.0,115.9,98.9,94.2,105.0,85.4,88.4,96.6,129.9,101.3,128.3,199.8,103.4,193.3,63.6,98.6,64.6
2001-01-01,102.3,98.5,103.9,89.3,101.6,87.9,97.9,95.1,103.0,95.6,76.5,125.1,110.1,103.9,106.0,167.3,104.0,160.8,50.6,101.0,50.1
2001-04-01,102.9,96.8,106.3,92.4,99.2,93.1,93.2,90.8,102.6,93.5,84.4,110.8,114.0,101.3,112.5,181.6,104.9,173.1,42.4,102.2,41.5
2001-07-01,89.5,93.7,95.5,76.3,101.7,75.0,84.1,84.3,99.8,96.9,82.8,117.1,88.9,101.1,87.9,156.0,102.4,152.4,55.1,102.1,54.0
2001-10-01,67.3,92.0,73.2,55.8,101.5,54.9,65.0,85.5,76.1,49.3,54.9,89.7,63.2,100.7,62.8,134.5,99.6,135.0,30.7,100.1,30.6
2002-01-01,36.9,94.4,39.1,25.6,107.4,23.8,41.5,90.3,45.9,44.5,65.1,68.4,34.6,105.0,33.0,58.1,98.9,58.7,15.2,100.2,15.2
2002-04-01,38.4,88.3,43.5,22.3,104.0,21.5,48.0,85.1,56.4,61.6,55.8,110.3,41.5,104.0,39.9,42.3,97.0,43.6,8.6,101.4,8.5
2002-07-01,40.8,89.3,45.7,20.1,107.2,18.8,55.8,86.0,64.9,42.3,52.7,80.2,46.5,103.3,45.0,39.1,94.5,41.4,15.1,100.5,15.1
2002-10-01,44.0,89.4,49.3,29.0,102.7,28.2,57.2,84.9,67.3,43.9,59.6,73.6,45.8,102.2,44.8,42.4,93.0,45.6,19.1,100.5,19.0
2003-01-01,44.7,92.2,48.5,31.0,102.1,30.4,57.5,89.4,64.3,45.4,65.6,69.3,45.8,101.2,45.2,45.7,93.8,48.7,13.0,101.6,12.8
2003-04-01,59.6,92.0,64.8,38.7,97.2,39.9,74.9,90.5,82.7,69.3,67.2,103.2,59.0,99.1,59.6,63.3,95.7,66.2,34.9,100.1,34.9
2003-07-01,66.2,91.9,72.0,48.1,96.6,49.8,79.2,88.8,89.2,49.1,65.5,74.9,66.5,98.4,67.6,75.5,96.8,78.0,54.4,100.4,54.1
2003-10-01,76.3,94.0,81.2,69.3,102.8,67.4,78.9,88.9,88.8,55.4,65.5,84.7,78.4,98.9,79.3,96.2,99.3,96.9,67.8,99.6,68.1
2004-01-01,83.1,95.6,86.9,87.3,98.0,89.0,86.2,92.1,93.6,57.1,90.3,63.3,81.6,99.3,82.2,83.4,98.2,85.0,69.0,99.0,69.7
2004-04-01,97.7,99.1,98.6,84.8,100.0,84.8,96.5,98.2,98.2,155.9,99.5,156.7,100.6,99.5,101.1,96.1,99.6,96.4,108.3,98.7,109.8
2004-07-01,107.4,101.7,105.6,106.4,103.4,102.8,109.0,102.2,106.6,98.9,99.9,99.0,106.1,100.1,106.1,102.5,100.1,102.4,121.8,99.6,122.3
2004-10-01,111.8,102.5,109.1,121.6,97.4,124.8,108.3,106.4,101.8,88.0,113.3,77.7,111.7,100.9,110.6,118.0,101.6,116.1,100.8,102.7,98.2
2005-01-01,106.3,105.5,100.8,97.1,100.7,96.4,111.9,110.5,101.3,100.2,114.3,87.6,111.9,101.4,110.4,104.3,102.3,102.0,103.4,103.7,99.7
2005-04-01,135.1,108.5,124.5,131.9,98.2,134.3,126.6,115.3,109.8,230.5,139.3,165.5,146.1,103.3,141.4,121.7,103.6,117.4,130.3,107.7,121.0
2005-07-01,132.6,107.9,122.9,137.8,99.7,138.2,121.6,112.7,107.9,156.4,144.5,108.2,139.5,104.9,133.0,133.7,103.9,128.7,153.1,110.4,138.7
2005-10-01,137.2,108.9,126.0,159.2,98.9,160.9,120.7,115.1,104.9,129.1,151.5,85.2,139.0,106.8,130.2,146.0,107.2,136.2,148.9,113.4,131.3
2006-01-01,131.4,111.2,118.1,128.2,102.3,125.3,125.1,116.1,107.7,129.2,148.3,87.2,140.3,107.7,130.2,136.3,108.7,125.5,163.0,115.4,141.2
2006-04-01,146.7,112.7,130.1,143.5,100.4,143.0,130.9,119.4,109.7,192.2,155.3,123.8,164.0,109.5,149.7,155.4,109.1,142.4,174.2,117.9,147.8
2006-07-01,165.8,115.3,143.8,169.8,101.6,167.0,148.4,124.2,119.5,233.7,161.5,144.7,187.2,111.4,168.1,166.7,109.9,151.7,162.0,118.9,136.2
2006-10-01,164.8,115.3,142.9,173.8,102.7,169.3,147.9,125.8,117.5,135.4,146.7,92.3,190.4,112.8,168.8,176.4,111.1,158.8,182.0,121.1,150.3
2007-01-01,163.3,116.2,140.5,163.3,103.0,158.4,152.3,126.6,120.3,131.0,138.5,94.6,185.4,112.9,164.2,168.3,113.1,148.8,205.0,122.7,167.1
2007-04-01,181.5,119.9,151.4,173.9,102.8,169.1,162.6,133.5,121.8,254.4,156.9,162.1,211.1,114.3,184.6,180.9,114.3,158.3,215.6,124.4,173.3
2007-07-01,226.2,125.6,180.1,208.7,104.1,200.4,200.6,142.1,141.1,506.0,178.9,282.9,237.4,115.4,205.6,226.5,115.5,196.1,239.9,127.0,188.9
2007-10-01,225.7,123.7,182.4,234.2,103.0,227.3,196.7,142.6,138.0,242.8,190.8,127.3,256.8,118.0,217.6,257.1,118.9,216.2,244.7,129.5,189.0
2008-01-01,229.0,126.8,180.6,245.0,105.5,232.3,211.9,153.7,137.9,168.5,176.9,95.2,243.1,117.2,207.5,226.9,118.8,191.1,315.9,129.8,243.3
2008-04-01,273.1,141.9,192.5,232.4,104.1,223.1,246.2,178.0,138.4,678.8,284.6,238.5,290.9,119.7,243.0,246.2,121.3,202.9,338.3,133.9,252.6
2008-07-01,294.3,146.5,200.9,247.7,104.2,237.7,271.4,195.7,138.7,667.6,279.3,239.1,318.0,122.9,258.6,271.8,123.3,220.5,358.5,138.9,258.1
2008-10-01,227.5,131.9,172.5,225.4,103.2,218.4,207.7,171.7,121.0,212.6,209.8,101.4,247.7,119.5,207.3,261.4,117.5,222.4,282.0,137.1,205.8
2009-01-01,148.1,120.7,122.7,139.6,102.1,136.7,136.5,135.9,100.5,138.8,156.4,88.7,164.9,114.5,144.1,186.9,115.7,161.6,155.7,138.4,112.5
2009-04-01,161.4,122.9,131.3,154.2,103.7,148.7,128.8,130.5,98.7,328.7,174.1,188.8,177.2,121.3,146.1,187.1,115.3,162.2,194.9,141.7,137.5
2009-07-01,187.3,121.7,153.9,168.4,103.3,163.0,150.5,126.7,118.8,406.9,184.1,221.0,223.6,117.6,190.1,209.7,115.0,182.3,210.5,137.9,152.6
2009-10-01,194.4,119.3,162.9,187.4,102.2,183.3,166.3,125.4,132.6,172.6,167.2,103.2,232.6,118.7,196.1,226.9,119.7,189.5,278.6,140.9,197.8
2010-01-01,197.2,122.7,160.7,183.9,103.6,177.5,168.8,136.9,123.3,213.0,205.4,103.7,228.6,112.2,203.8,225.5,117.4,192.1,307.3,140.9,218.0
2010-04-01,246.4,129.7,189.9,197.1,101.4,194.3,194.7,148.4,131.2,665.6,200.5,332.1,307.6,117.2,262.5,239.4,117.5,203.6,338.3,139.4,242.7
2010-07-01,284.8,127.6,223.3,228.2,99.4,229.6,227.5,150.5,151.1,653.3,195.6,334.0,366.0,113.2,323.4,281.4,117.8,238.9,430.2,139.6,308.3
2010-10-01,283.6,126.4,224.4,264.7,100.9,262.3,228.7,153.7,148.8,367.8,224.6,163.7,363.2,113.1,321.0,311.0,118.7,262.1,422.1,140.1,301.3
2011-01-01,272.6,132.0,206.5,231.7,100.2,231.1,224.2,163.9,136.8,545.8,258.5,211.2,323.4,112.0,288.7,283.6,120.4,235.5,421.3,138.1,305.0
2011-04-01,333.7,141.4,236.1,248.4,100.4,247.4,246.5,173.5,142.1,1208.7,283.0,427.1,416.2,114.0,365.2,309.4,122.5,252.6,436.2,147.3,296.1
2011-07-01,381.7,139.0,274.7,269.8,96.8,278.7,287.3,177.4,161.9,1423.5,278.2,511.7,486.2,107.3,453.0,348.9,118.5,294.3,471.1,150.5,313.0
2011-10-01,330.1,131.2,251.5,271.3,97.6,278.0,251.8,166.9,150.9,727.5,314.6,231.3,421.6,104.3,404.2,343.9,118.3,290.6,540.5,154.3,350.2
2012-01-01,271.5,130.4,208.2,218.7,99.4,220.1,215.0,162.6,132.2,525.4,335.3,156.7,362.3,103.6,349.7,263.3,121.8,216.1,456.0,146.9,310.3
2012-04-01,299.2,144.5,207.1,167.6,98.8,169.7,220.5,167.6,131.6,1437.3,333.0,431.5,361.4,100.4,360.0,246.3,122.9,200.3,434.5,149.2,291.1
2012-07-01,329.3,132.3,248.8,243.5,98.0,248.5,243.8,161.2,151.2,1061.5,329.8,321.9,442.0,98.4,449.2,312.3,121.8,256.4,421.0,150.2,280.3
2012-10-01,311.4,127.8,243.6,254.7,98.5,258.7,239.2,155.4,153.9,615.1,356.8,172.4,424.0,100.7,420.9,326.2,124.4,262.2,479.5,147.9,324.2
2013-01-01,287.8,137.8,208.9,195.1,99.1,196.9,209.9,160.1,131.1,908.0,381.7,237.9,392.6,104.2,376.8,292.4,130.5,224.1,437.7,159.0,275.2
2013-04-01,354.0,147.9,239.3,216.4,103.1,210.0,231.8,164.7,140.7,1648.2,347.4,474.4,455.5,107.1,425.3,286.3,130.6,219.2,629.3,163.9,383.9
2013-07-01,358.0,139.5,256.7,233.7,101.7,229.8,238.2,158.9,149.9,1385.9,342.0,405.2,477.1,101.4,470.6,311.6,125.8,247.6,675.8,164.4,411.1
2013-10-01,326.7,138.0,236.8,238.0,103.0,231.1,224.4,159.0,141.1,1027.0,368.9,278.4,437.0,102.7,425.7,299.5,135.0,221.8,618.0,157.8,391.7
2014-01-01,295.4,140.7,209.9,213.7,102.0,209.5,211.1,160.2,131.8,1174.7,340.2,345.3,382.2,103.5,369.2,269.9,131.8,204.8,342.5,166.3,206.0
2014-04-01,308.0,143.6,214.5,222.5,102.7,216.7,218.1,156.9,139.0,1443.9,352.5,409.6,364.2,103.1,353.3,255.8,127.5,200.7,344.8,164.5,209.5
2014-07-01,310.7,140.1,221.7,241.0,104.3,231.0,228.0,155.5,146.6,1264.1,346.6,364.7,390.2,104.2,374.3,278.8,127.0,219.5,264.1,166.1,159.0
2014-10-01,257.4,136.4,188.8,221.5,103.7,213.7,212.3,154.6,137.3,639.5,321.2,199.1,314.6,114.5,274.8,264.5,127.9,206.9,243.1,164.2,148.1
2015-01-01,240.7,128.9,186.7,199.7,102.0,195.8,204.4,146.1,139.9,502.9,250.1,201.1,316.6,110.7,286.1,253.3,122.0,207.6,217.5,162.8,133.6
2015-04-01,278.8,129.1,216.0,224.2,104.1,215.4,213.3,140.1,152.2,916.8,220.3,416.1,354.6,107.6,329.4,249.5,121.3,205.7,304.2,152.7,199.2
2015-07-01,301.0,123.5,243.8,247.0,100.7,245.4,219.4,139.1,157.7,927.2,208.5,444.7,402.0,100.9,398.5,300.4,118.5,253.4,318.7,149.0,213.9
2015-10-01,252.4,116.6,216.5,232.0,100.2,231.5,201.8,134.5,150.1,385.6,176.1,219.0,336.1,97.2,345.6,287.5,117.4,244.8,280.3,150.4,186.4
2016-01-01,227.7,111.7,203.8,192.0,98.8,194.2,179.2,126.5,141.7,338.3,135.7,249.2,316.4,94.8,333.8,265.5,111.8,237.6,311.3,151.5,205.5
2016-04-01,255.6,110.5,231.3,223.8,96.6,231.6,188.0,119.6,157.1,575.1,143.0,402.2,312.3,95.2,327.9,285.4,108.6,262.8,400.0,143.3,279.2
2016-07-01,260.8,111.5,233.8,236.1,95.8,246.5,177.7,114.9,154.6,697.7,146.4,476.6,304.7,101.4,300.4,319.4,112.0,285.1,362.5,145.4,249.4
2016-10-01,251.3,113.1,222.2,257.8,98.4,261.9,172.6,120.0,143.8,324.7,159.7,203.3,315.3,103.3,305.3,312.9,114.1,274.2,419.7,150.5,279.0
2017-01-01,248.4,116.4,213.4,232.8,104.2,223.4,180.20000000000002,128.6,140.1,341.6,171.9,198.70000000000002,300.6,97.8,307.5,314.3,114.0,275.6,445.6,146.6,304.0
2017-04-01,301.8,119.7,252.1,266.5,105.7,252.1,207.0,133.9,154.6,762.1,170.5,446.90000000000003,361.9,97.2,372.4,322.8,112.6,286.6,546.6,147.9,369.6
2017-07-01,326.6,116.60000000000001,280.2,322.0,103.9,310.0,221.5,126.8,174.6,653.5,166.6,392.1,380.7,97.1,392.3,393.1,115.8,339.6,544.6,148.9,365.7
2017-10-01,316.1,114.5,276.2,297.3,100.10000000000001,296.9,218.0,134.0,162.7,524.3,189.9,276.2,384.0,87.5,438.7,400.5,115.7,346.2,567.8,150.1,378.3
2018-01-01,301.5,120.1,251.1,259.7,101.0,257.1,227.1,141.0,161.1,510.8,205.3,248.8,371.5,96.5,384.8,364.9,114.1,319.7,524.0,152.7,343.2
2018-04-01,321.0,123.3,260.3,253.4,98.9,256.3,242.8,144.6,167.9,783.1,213.9,366.2,378.5,97.7,387.3,345.6,113.4,304.7,587.6,150.6,390.1
2018-07-01,306.5,123.8,247.5,228.20000000000002,93.9,242.9,248.8,142.8,174.3,922.4,225.20000000000002,409.6,329.0,100.7,326.6,358.2,109.3,327.9,395.5,148.4,266.5
2018-10-01,238.0,121.10000000000001,196.4,177.0,89.8,197.0,228.8,149.1,153.5,397.2,225.0,176.5,265.2,101.1,262.3,288.6,108.1,267.0,255.8,145.9,175.3
2019-01-01,216.8,119.2,181.9,155.3,91.4,169.8,199.1,143.3,139.0,386.6,217.0,178.20000000000002,275.0,96.3,285.5,247.9,111.7,222.0,242.9,153.9,157.8
2019-04-01,231.5,117.3,197.4,162.8,88.8,183.3,207.9,138.0,150.7,546.6,214.1,255.3,295.9,93.2,317.4,250.2,112.6,222.1,216.2,154.2,140.2
2019-07-01,237.2,114.1,207.9,168.8,87.5,192.9,215.0,128.7,167.0,547.6,215.3,254.4,301.5,94.6,318.7,265.3,109.0,243.4,196.3,151.9,129.2
2019-10-01,190.0,111.9,169.9,149.3,90.3,165.20000000000002,171.9,125.9,136.5,291.8,225.70000000000002,129.3,245.5,94.7,259.1,246.4,110.9,222.1,134.2,151.8,88.4
2020-01-01,176.1,114.7,153.5,122.3,89.4,136.8,171.3,127.9,133.9,319.0,208.3,153.1,212.20000000000002,97.2,218.3,222.20000000000002,112.3,197.9,130.7,152.8,85.5
2020-04-01,166.8,111.8,149.20000000000002,112.7,88.7,127.10000000000001,184.0,123.2,149.3,251.9,175.9,143.20000000000002,166.4,95.9,173.6,231.9,111.60000000000001,207.8,78.5,138.9,56.5
2020-07-01,197.6,109.9,179.8,145.5,86.60000000000001,168.0,207.3,124.8,166.1,307.6,130.2,236.3,195.6,94.4,207.20000000000002,250.0,113.7,219.8,149.1,144.9,102.9
2020-10-01,214.3,110.4,194.1,172.70000000000002,87.7,197.0,214.3,128.8,166.5,174.20000000000002,155.20000000000002,112.2,264.1,97.2,271.8,257.9,111.9,230.6,181.1,142.1,127.5
2021-01-01,229.5,115.8,198.1,173.20000000000002,90.2,192.0,235.20000000000002,140.70000000000002,167.20000000000002,296.6,173.20000000000002,171.3,280.1,95.2,294.1,256.3,114.0,224.70000000000002,166.20000000000002,141.0,117.8
2021-04-01,280.2,128.0,218.9,175.20000000000002,93.60000000000001,187.1,303.7,162.0,187.5,612.7,199.5,307.1,331.6,98.0,338.40000000000003,276.0,116.0,238.0,139.9,139.6,100.2
2021-07-01,309.3,133.7,231.4,190.9,94.9,201.3,336.40000000000003,168.70000000000002,199.4,781.5,226.4,345.1,345.7,101.2,341.8,303.0,116.0,261.3,134.1,141.9,94.5
2021-10-01,307.1,132.6,231.5,224.6,93.2,241.0,318.3,177.9,178.9,638.8000000000001,245.3,260.4,355.6,100.7,353.3,321.90000000000003,119.9,268.6,125.2,141.20000000000002,88.60000000000001
2022-01-01,320.2,136.8,234.0,231.8,96.10000000000001,241.20000000000002,310.40000000000003,176.4,176.0,866.3000000000001,268.6,322.6,361.2,102.5,352.5,347.5,126.10000000000001,275.5,138.8,145.4,95.4
2022-04-01,417.6,159.20000000000002,262.3,240.20000000000002,97.8,245.5,405.8,207.4,195.70000000000002,1815.4,395.90000000000003,458.6,447.3,103.2,433.6,343.5,128.3,267.7,182.20000000000002,151.9,120.0
2022-07-01,414.6,158.70000000000002,261.2,241.9,97.0,249.4,384.1,201.4,190.70000000000002,1846.2,428.7,430.7,460.40000000000003,106.5,432.40000000000003,357.0,126.0,283.2,181.70000000000002,158.8,114.4
2022-10-01,300.40000000000003,137.3,218.8,220.6,94.2,234.20000000000002,290.3,183.3,158.4,602.2,336.40000000000003,179.0,391.7,106.9,366.40000000000003,322.1,126.0,255.6,164.4,160.8,102.2
2023-01-01,307.3,142.20000000000002,216.1,193.4,97.9,197.6,309.2,188.6,163.9,747.3000000000001,267.5,279.3,401.90000000000003,107.2,374.8,313.0,127.8,244.9,138.3,164.0,84.4
2023-04-01,369.3,148.3,249.0,214.8,97.7,219.8,379.90000000000003,196.20000000000002,193.70000000000002,1081.5,305.7,353.8,463.90000000000003,108.0,429.40000000000003,323.5,123.60000000000001,261.8,201.3,164.70000000000002,122.2
2023-07-01,359.5,137.0,262.4,241.0,95.2,253.20000000000002,352.6,173.1,203.70000000000002,847.2,337.90000000000003,250.70000000000002,502.3,107.7,466.40000000000003,336.6,122.0,275.90000000000003,146.20000000000002,158.6,92.2
2023-10-01,277.6,132.6,209.3,179.9,96.10000000000001,187.20000000000002,278.7,163.0,171.0,483.1,272.8,177.1,395.0,110.0,359.1,296.6,122.0,243.1,132.3,159.9,82.7
